Regional Weather Roundup
Issued by NWS Raleigh/Durham, NC

Home | Current Version | Previous Version | Text Only | Print | Product List | Glossary On
Versions: 1 2 3 4 5 6 7 8 9 10 11 12 13 14 15 16 17 18 19 20 21 22 23 24 25 26 27
000
ASUS42 KRAH 230310
RWRRAH
NORTH CAROLINA WEATHER ROUNDUP
NATIONAL WEATHER SERVICE RALEIGH NC
1000 PM EST WED FEB 22 2017

NOTE: "FAIR" INDICATES FEW OR NO CLOUDS BELOW 12,000 FEET WITH NO
SIGNIFICANT WEATHER AND/OR OBSTRUCTIONS TO VISIBILITY.

NCZ001-053-055-056-065-067-230400-
WESTERN NORTH CAROLINA

CITY           SKY/WX    TMP DP  RH WIND       PRES   REMARKS
ASHEVILLE      CLOUDY    54  51  90 CALM      29.96S
JEFFERSON      CLOUDY    49  49  99 CALM      29.97S FOG
MORGANTON      FOG       52  52 100 CALM      30.00S VSB 1
HICKORY        CLOUDY    55  54  96 CALM      29.94F
RUTHERFORDTON  CLOUDY    55  55  98 CALM      29.96S
MOUNT AIRY     FOG       54  52  94 CALM      29.96F VSB 1/4
BOONE            N/A     48  48 100 CALM      29.98S FOG
$$

NCZ021-022-025-041-071-084-088-230400-
CENTRAL NORTH CAROLINA

CITY           SKY/WX    TMP DP  RH WIND       PRES   REMARKS
CHARLOTTE      CLOUDY    60  53  77 N5        29.94R
GREENSBORO     FOG       54  54 100 NE3       29.94S VSB 1/2
WINSTON-SALEM  FOG       53  51  93 N5        29.96S VSB 3/4
RALEIGH-DURHAM CLOUDY    59  53  80 N3        29.95S
FORT BRAGG     CLOUDY    65  53  65 S5        29.93S
FAYETTEVILLE   CLOUDY    63  53  70 SE3       29.94S
BURLINGTON     CLOUDY    56  54  93 N5        29.94S
LAURINBURG     PTCLDY    59  53  80 SE6       29.94S
$$

NCZ011-015-027-028-043-044-047-080-103-230400-
NORTHEASTERN NORTH CAROLINA

CITY           SKY/WX    TMP DP  RH WIND       PRES   REMARKS
ROCKY MT-WILSO CLOUDY    57  54  89 CALM      29.95S
GREENVILLE     CLOUDY    61  54  77 S5        29.98R
WASHINGTON     CLOUDY    58  52  78 SE6       29.96F
ELIZABETH CITY CLOUDY    58  51  78 SE6       29.97S
MANTEO         CLOUDY    60  50  71 S7        29.98S
CAPE HATTERAS  CLOUDY    64  54  69 VRB3      29.97F
$$

NCZ078-087-090-091-093-098-101-230400-
SOUTHEASTERN NORTH CAROLINA

CITY           SKY/WX    TMP DP  RH WIND       PRES   REMARKS
LUMBERTON      LGT RAIN  61  54  77 SE3       29.94S
GOLDSBORO      CLOUDY    62  55  77 SE3       29.94S
KENANSVILLE    NOT AVBL
NEW BERN       CLOUDY    54  52  93 CALM      29.97S
CHERRY POINT   NOT AVBL
BEAUFORT       CLOUDY    60  54  80 CALM      29.96F
JACKSONVILLE   CLOUDY    59  55  87 SE3       29.94F
WILMINGTON     MOCLDY    59  54  83 E3        29.94F
$$





USA.gov is the U.S. government's official web portal to all federal, state and local government web resources and services.